| time (UTC) | temp C | wind direction | speed KPH | gust KPH | rain 1hr cm | rain 24hr cm | rain mn cm | humidity % | barometer mb |
| 20260503173955 | 15 | 155 | 4.8 | 19.3 | 0.00 | 0.00 | 0.00 | 41 | 1016.0 |
| 20260503173855 | 14 | 279 | 3.2 | 19.3 | 0.00 | 0.00 | 0.00 | 45 | 1016.0 |
| 20260503173755 | 14 | 244 | 4.8 | 19.3 | 0.00 | 0.00 | 0.00 | 41 | 1015.9 |
| 20260503173655 | 14 | 296 | 3.2 | 19.3 | 0.00 | 0.00 | 0.00 | 43 | 1016.0 |
| 20260503173554 | 14 | 253 | 6.4 | 19.3 | 0.00 | 0.00 | 0.00 | 44 | 1016.0 |
| 20260503173455 | 13 | 248 | 1.6 | 19.3 | 0.00 | 0.00 | 0.00 | 43 | 1016.1 |
| 20260503173356 | 13 | 231 | 4.8 | 19.3 | 0.00 | 0.00 | 0.00 | 42 | 1016.1 |
| 20260503173156 | 13 | 207 | 12.9 | 17.7 | 0.00 | 0.00 | 0.00 | 40 | 1016.1 |
| 20260503173054 | 13 | 207 | 9.7 | 17.7 | 0.00 | 0.00 | 0.00 | 40 | 1016.1 |
| 20260503172855 | 13 | 175 | 4.8 | 16.1 | 0.00 | 0.00 | 0.00 | 41 | 1016.2 |
| 20260503172756 | 13 | 239 | 6.4 | 16.1 | 0.00 | 0.00 | 0.00 | 40 | 1016.1 |
| 20260503172655 | 13 | 190 | 6.4 | 20.9 | 0.00 | 0.00 | 0.00 | 43 | 1016.1 |
| 20260503172454 | 13 | 284 | 3.2 | 22.5 | 0.00 | 0.00 | 0.00 | 44 | 1016.2 |
| 20260503172254 | 13 | 225 | 3.2 | 22.5 | 0.00 | 0.00 | 0.00 | 40 | 1016.2 |
| 20260503172055 | 13 | 224 | 3.2 | 22.5 | 0.00 | 0.00 | 0.00 | 43 | 1016.2 |
| 20260503171656 | 13 | 170 | 17.7 | 20.9 | 0.00 | 0.00 | 0.00 | 45 | 1016.1 |
| 20260503171455 | 13 | 177 | 1.6 | 20.9 | 0.00 | 0.00 | 0.00 | 41 | 1016.1 |
| 20260503171355 | 13 | 241 | 3.2 | 20.9 | 0.00 | 0.00 | 0.00 | 46 | 1016.1 |
| 20260503171056 | 13 | 254 | 6.4 | 12.9 | 0.00 | 0.00 | 0.00 | 43 | 1016.3 |
| 20260503170955 | 13 | 197 | 4.8 | 12.9 | 0.00 | 0.00 | 0.00 | 41 | 1016.3 |
| 20260503170855 | 13 | 177 | 8.0 | 17.7 | 0.00 | 0.00 | 0.00 | 45 | 1016.3 |
| 20260503170755 | 13 | 192 | 6.4 | 17.7 | 0.00 | 0.00 | 0.00 | 46 | 1016.3 |
| 20260503170655 | 13 | 265 | 3.2 | 17.7 | 0.00 | 0.00 | 0.00 | 41 | 1016.3 |
| 20260503170556 | 13 | 169 | 6.4 | 17.7 | 0.00 | 0.00 | 0.00 | 39 | 1016.2 |
| 20260503170456 | 13 | 260 | 3.2 | 17.7 | 0.00 | 0.00 | 0.00 | 43 | 1016.3 |
| 20260503170356 | 13 | 222 | 1.6 | 17.7 | 0.00 | 0.00 | 0.00 | 46 | 1016.3 |
| 20260503170255 | 13 | 266 | 1.6 | 17.7 | 0.00 | 0.00 | 0.00 | 39 | 1016.3 |
| 20260503170154 | 13 | 222 | 4.8 | 17.7 | 0.00 | 0.00 | 0.00 | 38 | 1016.4 |
| 20260503160154 | 12 | 214 | 4.8 | 16.1 | 0.00 | 0.00 | 0.00 | 43 | 1016.8 |
| 20260503150853 | 11 | 236 | 3.2 | 22.5 | 0.00 | 0.00 | 0.00 | 48 | 1017.1 |
| 20260503150755 | 11 | 319 | 6.4 | 22.5 | 0.00 | 0.00 | 0.00 | 46 | 1017.2 |
| 20260503150654 | 11 | 263 | 3.2 | 14.5 | 0.00 | 0.00 | 0.00 | 45 | 1017.2 |
| 20260503150554 | 11 | 192 | 1.6 | 14.5 | 0.00 | 0.00 | 0.00 | 45 | 1017.1 |
| 20260503150455 | 11 | 228 | 3.2 | 14.5 | 0.00 | 0.00 | 0.00 | 44 | 1017.2 |
| 20260503150355 | 11 | 179 | 8.0 | 14.5 | 0.00 | 0.00 | 0.00 | 47 | 1017.2 |
| 20260503150256 | 11 | 282 | 1.6 | 14.5 | 0.00 | 0.00 | 0.00 | 47 | 1017.2 |
| 20260503150156 | 11 | 250 | 1.6 | 14.5 | 0.00 | 0.00 | 0.00 | 48 | 1017.2 |
| 20260503140255 | 9 | 175 | 17.7 | 17.7 | 0.00 | 0.00 | 0.00 | 56 | 1017.6 |
| 20260503140155 | 9 | 232 | 3.2 | 11.3 | 0.00 | 0.00 | 0.00 | 54 | 1017.7 |
| 20260503131355 | 7 | 259 | 1.6 | 16.1 | 0.00 | 0.00 | 0.00 | 64 | 1017.8 |
| 20260503131255 | 7 | 258 | 1.6 | 16.1 | 0.00 | 0.00 | 0.00 | 66 | 1017.7 |
| 20260503131055 | 7 | 215 | 8.0 | 16.1 | 0.00 | 0.00 | 0.00 | 65 | 1017.8 |
| 20260503130854 | 7 | 259 | 3.2 | 12.9 | 0.00 | 0.00 | 0.00 | 64 | 1017.8 |
| 20260503130754 | 7 | 166 | 8.0 | 11.3 | 0.00 | 0.00 | 0.00 | 66 | 1017.9 |
| 20260503130655 | 7 | 232 | 3.2 | 11.3 | 0.00 | 0.00 | 0.00 | 67 | 1017.8 |
| 20260503130554 | 7 | 220 | 1.6 | 11.3 | 0.00 | 0.00 | 0.00 | 68 | 1017.8 |
| 20260503130454 | 7 | 190 | 1.6 | 11.3 | 0.00 | 0.00 | 0.00 | 65 | 1017.8 |
| 20260503130355 | 7 | 207 | 1.6 | 11.3 | 0.00 | 0.00 | 0.00 | 67 | 1017.7 |
| 20260503130256 | 7 | 224 | 8.0 | 11.3 | 0.00 | 0.00 | 0.00 | 65 | 1017.8 |
| 20260503130155 | 7 | 282 | 4.8 | 11.3 | 0.00 | 0.00 | 0.00 | 70 | 1017.9 |
| 20260503120154 | 2 | 207 | 1.6 | 3.2 | 0.00 | 0.00 | 0.00 | 89 | 1017.4 |
| 20260503110754 | 0 | 32 | 0.0 | 0.0 | 0.00 | 0.00 | 0.00 | 95 | 1017.1 |
| 20260503110655 | 0 | 32 | 0.0 | 0.0 | 0.00 | 0.00 | 0.00 | 95 | 1017.1 |
| 20260503110355 | 0 | 32 | 0.0 | 0.0 | 0.00 | 0.00 | 0.00 | 94 | 1017.0 |
| 20260503110255 | 0 | 32 | 0.0 | 0.0 | 0.00 | 0.00 | 0.00 | 94 | 1017.0 |
| 20260503110155 | 0 | 32 | 0.0 | 0.0 | 0.00 | 0.00 | 0.00 | 94 | 1017.0 |
| 20260503100255 | -1 | 32 | 0.0 | 0.0 | 0.00 | 0.00 | 0.00 | 94 | 1016.3 |
| 20260503100154 | -1 | 32 | 0.0 | 0.0 | 0.00 | 0.00 | 0.00 | 94 | 1016.3 |
| 20260503090454 | 0 | 32 | 0.0 | 0.0 | 0.00 | 0.00 | 0.00 | 93 | 1016.3 |
| 20260503090253 | 0 | 32 | 0.0 | 0.0 | 0.00 | 0.00 | 0.00 | 93 | 1016.2 |
| 20260503081555 | 0 | 32 | 0.0 | 0.0 | 0.00 | 0.00 | 0.00 | 92 | 1016.3 |
| 20260503081454 | 0 | 32 | 0.0 | 0.0 | 0.00 | 0.00 | 0.00 | 92 | 1016.2 |
| 20260503081355 | 0 | 32 | 0.0 | 0.0 | 0.00 | 0.00 | 0.00 | 92 | 1016.3 |
| 20260503081255 | 0 | 32 | 0.0 | 0.0 | 0.00 | 0.00 | 0.00 | 92 | 1016.3 |
| 20260503081155 | 0 | 32 | 0.0 | 0.0 | 0.00 | 0.00 | 0.00 | 92 | 1016.3 |
| 20260503081055 | 0 | 32 | 0.0 | 0.0 | 0.00 | 0.00 | 0.00 | 92 | 1016.2 |
| 20260503080954 | 0 | 32 | 0.0 | 0.0 | 0.00 | 0.00 | 0.00 | 92 | 1016.3 |
| 20260503080855 | 0 | 32 | 0.0 | 0.0 | 0.00 | 0.00 | 0.00 | 92 | 1016.3 |
| 20260503080754 | 0 | 32 | 0.0 | 0.0 | 0.00 | 0.00 | 0.00 | 92 | 1016.3 |
| 20260503080555 | 0 | 32 | 0.0 | 0.0 | 0.00 | 0.00 | 0.00 | 92 | 1016.2 |
| 20260503080455 | 0 | 32 | 0.0 | 0.0 | 0.00 | 0.00 | 0.00 | 92 | 1016.2 |
| 20260503080354 | 0 | 32 | 0.0 | 0.0 | 0.00 | 0.00 | 0.00 | 92 | 1016.3 |
| 20260503080155 | 0 | 32 | 0.0 | 0.0 | 0.00 | 0.00 | 0.00 | 92 | 1016.3 |
| 20260503072854 | 0 | 32 | 0.0 | 0.0 | 0.00 | 0.00 | 0.00 | 92 | 1016.1 |
| 20260503072753 | 0 | 32 | 0.0 | 0.0 | 0.00 | 0.00 | 0.00 | 92 | 1016.0 |
| 20260503072652 | 0 | 32 | 0.0 | 0.0 | 0.00 | 0.00 | 0.00 | 92 | 1016.0 |
| 20260503072553 | 0 | 32 | 0.0 | 0.0 | 0.00 | 0.00 | 0.00 | 92 | 1016.0 |
| 20260503072453 | 0 | 32 | 0.0 | 0.0 | 0.00 | 0.00 | 0.00 | 92 | 1016.0 |
| 20260503072354 | 0 | 32 | 0.0 | 0.0 | 0.00 | 0.00 | 0.00 | 92 | 1016.0 |
| 20260503072254 | 0 | 32 | 0.0 | 0.0 | 0.00 | 0.00 | 0.00 | 93 | 1016.0 |
| 20260503072153 | 0 | 32 | 0.0 | 0.0 | 0.00 | 0.00 | 0.00 | 92 | 1016.0 |
| 20260503072055 | 0 | 32 | 0.0 | 0.0 | 0.00 | 0.00 | 0.00 | 92 | 1015.9 |
| 20260503071954 | 0 | 32 | 0.0 | 0.0 | 0.00 | 0.00 | 0.00 | 92 | 1015.9 |
| 20260503071853 | 0 | 32 | 0.0 | 0.0 | 0.00 | 0.00 | 0.00 | 92 | 1016.0 |
| 20260503071753 | 0 | 32 | 0.0 | 0.0 | 0.00 | 0.00 | 0.00 | 92 | 1016.0 |
| 20260503071654 | 0 | 32 | 0.0 | 0.0 | 0.00 | 0.00 | 0.00 | 93 | 1016.0 |
| 20260503071554 | 0 | 32 | 0.0 | 0.0 | 0.00 | 0.00 | 0.00 | 93 | 1016.0 |
| 20260503071454 | 0 | 32 | 0.0 | 0.0 | 0.00 | 0.00 | 0.00 | 93 | 1016.1 |
| 20260503071354 | 0 | 32 | 0.0 | 0.0 | 0.00 | 0.00 | 0.00 | 93 | 1016.0 |
| 20260503071053 | 0 | 32 | 0.0 | 0.0 | 0.00 | 0.00 | 0.00 | 93 | 1016.0 |
| 20260503070954 | 0 | 32 | 0.0 | 0.0 | 0.00 | 0.00 | 0.00 | 93 | 1015.9 |
| 20260503070853 | 0 | 32 | 0.0 | 0.0 | 0.00 | 0.00 | 0.00 | 93 | 1015.9 |
| 20260503070654 | 0 | 32 | 0.0 | 0.0 | 0.00 | 0.00 | 0.00 | 93 | 1016.0 |
| 20260503070554 | 0 | 32 | 0.0 | 0.0 | 0.00 | 0.00 | 0.00 | 93 | 1016.1 |
| 20260503070453 | 0 | 32 | 0.0 | 0.0 | 0.00 | 0.00 | 0.00 | 93 | 1016.0 |
| 20260503070354 | 0 | 32 | 0.0 | 0.0 | 0.00 | 0.00 | 0.00 | 93 | 1016.0 |
| 20260503070255 | 0 | 32 | 0.0 | 0.0 | 0.00 | 0.00 | 0.00 | 93 | 1016.0 |
| 20260503070154 | 0 | 32 | 0.0 | 0.0 | 0.00 | 0.00 | 0.00 | 93 | 1016.0 |
| 20260503060253 | 0 | 32 | 0.0 | 0.0 | 0.00 | 0.00 | 0.00 | 93 | 1016.2 |
| 20260503055054 | 0 | 32 | 0.0 | 0.0 | 0.00 | 0.00 | 0.00 | 92 | 1016.2 |
| 20260503054853 | 0 | 32 | 0.0 | 0.0 | 0.00 | 0.00 | 0.00 | 92 | 1016.2 |
| 20260503054754 | 0 | 32 | 0.0 | 0.0 | 0.00 | 0.00 | 0.00 | 92 | 1016.1 |
| 20260503054653 | 0 | 32 | 0.0 | 0.0 | 0.00 | 0.00 | 0.00 | 92 | 1016.2 |
| 20260503054554 | 0 | 32 | 0.0 | 0.0 | 0.00 | 0.00 | 0.00 | 92 | 1016.2 |
| 20260503054453 | 0 | 32 | 0.0 | 0.0 | 0.00 | 0.00 | 0.00 | 92 | 1016.2 |
| 20260503054253 | 0 | 32 | 0.0 | 0.0 | 0.00 | 0.00 | 0.00 | 92 | 1016.2 |
| 20260503054053 | 0 | 32 | 0.0 | 0.0 | 0.00 | 0.00 | 0.00 | 92 | 1016.2 |
| 20260503053952 | 0 | 32 | 0.0 | 0.0 | 0.00 | 0.00 | 0.00 | 92 | 1016.2 |
| 20260503053854 | 0 | 32 | 0.0 | 0.0 | 0.00 | 0.00 | 0.00 | 92 | 1016.1 |
| 20260503053753 | 0 | 32 | 0.0 | 0.0 | 0.00 | 0.00 | 0.00 | 92 | 1016.2 |
| 20260503053652 | 0 | 32 | 0.0 | 0.0 | 0.00 | 0.00 | 0.00 | 92 | 1016.2 |
| 20260503053353 | 0 | 32 | 0.0 | 0.0 | 0.00 | 0.00 | 0.00 | 92 | 1016.2 |
| 20260503053253 | 0 | 32 | 0.0 | 0.0 | 0.00 | 0.00 | 0.00 | 92 | 1016.2 |
| 20260503053153 | 0 | 32 | 0.0 | 0.0 | 0.00 | 0.00 | 0.00 | 92 | 1016.3 |
| 20260503053052 | 0 | 32 | 0.0 | 0.0 | 0.00 | 0.00 | 0.00 | 92 | 1016.2 |
| 20260503052953 | 0 | 32 | 0.0 | 0.0 | 0.00 | 0.00 | 0.00 | 92 | 1016.2 |
| 20260503052653 | 0 | 32 | 0.0 | 0.0 | 0.00 | 0.00 | 0.00 | 92 | 1016.2 |
| 20260503052553 | 0 | 32 | 0.0 | 0.0 | 0.00 | 0.00 | 0.00 | 92 | 1016.3 |
| 20260503052452 | 0 | 32 | 0.0 | 0.0 | 0.00 | 0.00 | 0.00 | 92 | 1016.2 |
| 20260503052353 | 0 | 32 | 0.0 | 0.0 | 0.00 | 0.00 | 0.00 | 92 | 1016.2 |
| 20260503052253 | 0 | 32 | 0.0 | 0.0 | 0.00 | 0.00 | 0.00 | 92 | 1016.3 |
| 20260503052152 | 0 | 32 | 0.0 | 0.0 | 0.00 | 0.00 | 0.00 | 92 | 1016.3 |
| 20260503051953 | 0 | 32 | 0.0 | 0.0 | 0.00 | 0.00 | 0.00 | 92 | 1016.2 |
| 20260503051853 | 0 | 32 | 0.0 | 0.0 | 0.00 | 0.00 | 0.00 | 92 | 1016.2 |
| 20260503051753 | 0 | 32 | 0.0 | 0.0 | 0.00 | 0.00 | 0.00 | 92 | 1016.3 |
| 20260503051652 | 0 | 32 | 0.0 | 0.0 | 0.00 | 0.00 | 0.00 | 91 | 1016.3 |
| 20260503051552 | 0 | 32 | 0.0 | 0.0 | 0.00 | 0.00 | 0.00 | 91 | 1016.3 |
| 20260503051452 | 0 | 32 | 0.0 | 0.0 | 0.00 | 0.00 | 0.00 | 91 | 1016.2 |
| 20260503051353 | 0 | 32 | 0.0 | 0.0 | 0.00 | 0.00 | 0.00 | 91 | 1016.3 |
| 20260503051253 | 0 | 32 | 0.0 | 0.0 | 0.00 | 0.00 | 0.00 | 91 | 1016.3 |
| 20260503051153 | 0 | 32 | 0.0 | 0.0 | 0.00 | 0.00 | 0.00 | 91 | 1016.2 |
| 20260503051054 | 0 | 32 | 0.0 | 0.0 | 0.00 | 0.00 | 0.00 | 91 | 1016.3 |
| 20260503050952 | 0 | 32 | 0.0 | 0.0 | 0.00 | 0.00 | 0.00 | 91 | 1016.3 |
| 20260503050852 | 0 | 32 | 0.0 | 0.0 | 0.00 | 0.00 | 0.00 | 91 | 1016.3 |
| 20260503050753 | 0 | 32 | 0.0 | 0.0 | 0.00 | 0.00 | 0.00 | 91 | 1016.3 |
| 20260503050653 | 0 | 32 | 0.0 | 0.0 | 0.00 | 0.00 | 0.00 | 91 | 1016.3 |
| 20260503050553 | 0 | 32 | 0.0 | 0.0 | 0.00 | 0.00 | 0.00 | 91 | 1016.3 |
| 20260503050453 | 0 | 32 | 0.0 | 0.0 | 0.00 | 0.00 | 0.00 | 91 | 1016.2 |
| 20260503050353 | 0 | 32 | 0.0 | 0.0 | 0.00 | 0.00 | 0.00 | 91 | 1016.2 |
| 20260503050253 | 0 | 32 | 0.0 | 0.0 | 0.00 | 0.00 | 0.00 | 91 | 1016.3 |
| 20260503050152 | 0 | 32 | 0.0 | 0.0 | 0.00 | 0.00 | 0.00 | 91 | 1016.3 |
| 20260503050053 | 0 | 32 | 0.0 | 0.0 | 0.00 | 0.00 | 0.00 | 91 | 1016.3 |
| 20260503045855 | 0 | 32 | 0.0 | 0.0 | 0.00 | 0.00 | 0.00 | 91 | 1016.3 |
| 20260503045756 | 0 | 32 | 0.0 | 0.0 | 0.00 | 0.00 | 0.00 | 90 | 1016.4 |
| 20260503045655 | 0 | 32 | 0.0 | 0.0 | 0.00 | 0.00 | 0.00 | 90 | 1016.3 |
| 20260503045555 | 0 | 32 | 0.0 | 0.0 | 0.00 | 0.00 | 0.00 | 91 | 1016.3 |
| 20260503045456 | 0 | 32 | 0.0 | 0.0 | 0.00 | 0.00 | 0.00 | 90 | 1016.3 |
| 20260503045355 | 0 | 32 | 0.0 | 0.0 | 0.00 | 0.00 | 0.00 | 90 | 1016.3 |
| 20260503045254 | 0 | 32 | 0.0 | 0.0 | 0.00 | 0.00 | 0.00 | 90 | 1016.3 |
| 20260503045155 | 0 | 32 | 0.0 | 0.0 | 0.00 | 0.00 | 0.00 | 90 | 1016.3 |
| 20260503045055 | 0 | 32 | 0.0 | 0.0 | 0.00 | 0.00 | 0.00 | 90 | 1016.3 |
| 20260503044955 | 0 | 32 | 0.0 | 0.0 | 0.00 | 0.00 | 0.00 | 90 | 1016.4 |
| 20260503044855 | 0 | 32 | 0.0 | 0.0 | 0.00 | 0.00 | 0.00 | 90 | 1016.3 |
| 20260503044755 | 0 | 32 | 0.0 | 0.0 | 0.00 | 0.00 | 0.00 | 90 | 1016.3 |
| 20260503044655 | 0 | 32 | 0.0 | 0.0 | 0.00 | 0.00 | 0.00 | 90 | 1016.3 |
| 20260503044555 | 0 | 32 | 0.0 | 0.0 | 0.00 | 0.00 | 0.00 | 90 | 1016.2 |
| 20260503044455 | 0 | 32 | 0.0 | 0.0 | 0.00 | 0.00 | 0.00 | 90 | 1016.3 |
| 20260503044255 | 0 | 32 | 0.0 | 0.0 | 0.00 | 0.00 | 0.00 | 90 | 1016.3 |
| 20260503044056 | 0 | 32 | 0.0 | 0.0 | 0.00 | 0.00 | 0.00 | 89 | 1016.3 |
| 20260503043955 | 0 | 32 | 0.0 | 0.0 | 0.00 | 0.00 | 0.00 | 89 | 1016.2 |
| 20260503043855 | 0 | 32 | 0.0 | 0.0 | 0.00 | 0.00 | 0.00 | 89 | 1016.3 |
| 20260503043755 | 0 | 32 | 0.0 | 0.0 | 0.00 | 0.00 | 0.00 | 89 | 1016.3 |
| 20260503043656 | 0 | 32 | 0.0 | 0.0 | 0.00 | 0.00 | 0.00 | 89 | 1016.3 |
| 20260503043555 | 1 | 32 | 0.0 | 0.0 | 0.00 | 0.00 | 0.00 | 89 | 1016.3 |
| 20260503043455 | 1 | 32 | 0.0 | 0.0 | 0.00 | 0.00 | 0.00 | 89 | 1016.3 |
| 20260503043255 | 1 | 32 | 0.0 | 0.0 | 0.00 | 0.00 | 0.00 | 88 | 1016.3 |
| 20260503043155 | 1 | 32 | 0.0 | 0.0 | 0.00 | 0.00 | 0.00 | 88 | 1016.3 |
| 20260503043056 | 1 | 32 | 0.0 | 0.0 | 0.00 | 0.00 | 0.00 | 88 | 1016.4 |
| 20260503042955 | 1 | 32 | 0.0 | 0.0 | 0.00 | 0.00 | 0.00 | 88 | 1016.3 |
| 20260503042855 | 1 | 32 | 0.0 | 0.0 | 0.00 | 0.00 | 0.00 | 88 | 1016.3 |
| 20260503042754 | 1 | 32 | 0.0 | 0.0 | 0.00 | 0.00 | 0.00 | 88 | 1016.3 |
| 20260503042555 | 1 | 32 | 0.0 | 0.0 | 0.00 | 0.00 | 0.00 | 88 | 1016.3 |
| 20260503042354 | 1 | 32 | 0.0 | 0.0 | 0.00 | 0.00 | 0.00 | 87 | 1016.3 |
| 20260503041955 | 1 | 32 | 0.0 | 0.0 | 0.00 | 0.00 | 0.00 | 88 | 1016.3 |
| 20260503041854 | 1 | 32 | 0.0 | 0.0 | 0.00 | 0.00 | 0.00 | 88 | 1016.3 |
| 20260503041755 | 1 | 32 | 0.0 | 0.0 | 0.00 | 0.00 | 0.00 | 88 | 1016.3 |
| 20260503041555 | 1 | 32 | 0.0 | 0.0 | 0.00 | 0.00 | 0.00 | 88 | 1016.4 |
| 20260503041455 | 1 | 32 | 0.0 | 0.0 | 0.00 | 0.00 | 0.00 | 88 | 1016.4 |
| 20260503041354 | 1 | 32 | 0.0 | 0.0 | 0.00 | 0.00 | 0.00 | 88 | 1016.4 |
| 20260503041254 | 1 | 32 | 0.0 | 0.0 | 0.00 | 0.00 | 0.00 | 88 | 1016.4 |
| 20260503041155 | 1 | 32 | 0.0 | 0.0 | 0.00 | 0.00 | 0.00 | 88 | 1016.4 |
| 20260503040955 | 1 | 32 | 0.0 | 0.0 | 0.00 | 0.00 | 0.00 | 88 | 1016.4 |
| 20260503040854 | 1 | 32 | 0.0 | 0.0 | 0.00 | 0.00 | 0.00 | 88 | 1016.4 |
| 20260503040755 | 1 | 32 | 0.0 | 0.0 | 0.00 | 0.00 | 0.00 | 88 | 1016.4 |
| 20260503040655 | 1 | 32 | 0.0 | 0.0 | 0.00 | 0.00 | 0.00 | 88 | 1016.4 |
| 20260503040555 | 1 | 32 | 0.0 | 0.0 | 0.00 | 0.00 | 0.00 | 88 | 1016.4 |
| 20260503040455 | 1 | 32 | 0.0 | 0.0 | 0.00 | 0.00 | 0.00 | 88 | 1016.4 |
| 20260503040355 | 1 | 32 | 0.0 | 0.0 | 0.00 | 0.00 | 0.00 | 87 | 1016.4 |
| 20260503040256 | 1 | 32 | 0.0 | 0.0 | 0.00 | 0.00 | 0.00 | 87 | 1016.4 |
| 20260503040155 | 1 | 32 | 0.0 | 0.0 | 0.00 | 0.00 | 0.00 | 87 | 1016.4 |
| 20260503040055 | 1 | 32 | 0.0 | 0.0 | 0.00 | 0.00 | 0.00 | 87 | 1016.4 |
| 20260503035955 | 1 | 32 | 0.0 | 0.0 | 0.00 | 0.00 | 0.00 | 87 | 1016.4 |
| 20260503035856 | 1 | 32 | 0.0 | 0.0 | 0.00 | 0.00 | 0.00 | 87 | 1016.4 |
| 20260503035757 | 1 | 32 | 0.0 | 0.0 | 0.00 | 0.00 | 0.00 | 87 | 1016.4 |
| 20260503035656 | 1 | 32 | 0.0 | 0.0 | 0.00 | 0.00 | 0.00 | 87 | 1016.4 |
| 20260503035556 | 1 | 32 | 0.0 | 0.0 | 0.00 | 0.00 | 0.00 | 87 | 1016.4 |
| 20260503035356 | 1 | 32 | 0.0 | 0.0 | 0.00 | 0.00 | 0.00 | 86 | 1016.3 |
| 20260503035256 | 1 | 32 | 0.0 | 0.0 | 0.00 | 0.00 | 0.00 | 86 | 1016.3 |
| 20260503035156 | 1 | 32 | 0.0 | 0.0 | 0.00 | 0.00 | 0.00 | 86 | 1016.3 |
| 20260503034956 | 1 | 32 | 0.0 | 0.0 | 0.00 | 0.00 | 0.00 | 85 | 1016.3 |
| 20260503034857 | 1 | 32 | 0.0 | 0.0 | 0.00 | 0.00 | 0.00 | 85 | 1016.3 |
| 20260503034656 | 1 | 32 | 0.0 | 0.0 | 0.00 | 0.00 | 0.00 | 85 | 1016.3 |
| 20260503034555 | 2 | 32 | 0.0 | 0.0 | 0.00 | 0.00 | 0.00 | 85 | 1016.4 |
| 20260503034455 | 2 | 32 | 0.0 | 0.0 | 0.00 | 0.00 | 0.00 | 85 | 1016.3 |
| 20260503034356 | 2 | 32 | 0.0 | 0.0 | 0.00 | 0.00 | 0.00 | 85 | 1016.3 |
| 20260503034256 | 2 | 32 | 0.0 | 0.0 | 0.00 | 0.00 | 0.00 | 85 | 1016.3 |
| 20260503034155 | 2 | 32 | 0.0 | 0.0 | 0.00 | 0.00 | 0.00 | 85 | 1016.4 |
| 20260503034056 | 2 | 32 | 0.0 | 0.0 | 0.00 | 0.00 | 0.00 | 85 | 1016.4 |
| 20260503033956 | 2 | 32 | 0.0 | 0.0 | 0.00 | 0.00 | 0.00 | 85 | 1016.2 |
| 20260503033856 | 2 | 32 | 0.0 | 0.0 | 0.00 | 0.00 | 0.00 | 85 | 1016.3 |
| 20260503033756 | 2 | 32 | 0.0 | 0.0 | 0.00 | 0.00 | 0.00 | 85 | 1016.4 |
| 20260503033656 | 2 | 32 | 0.0 | 0.0 | 0.00 | 0.00 | 0.00 | 85 | 1016.4 |
| 20260503033556 | 2 | 32 | 0.0 | 0.0 | 0.00 | 0.00 | 0.00 | 85 | 1016.4 |
| 20260503033358 | 2 | 32 | 0.0 | 0.0 | 0.00 | 0.00 | 0.00 | 85 | 1016.3 |
| 20260503033257 | 2 | 32 | 0.0 | 0.0 | 0.00 | 0.00 | 0.00 | 85 | 1016.3 |
| 20260503033158 | 2 | 32 | 0.0 | 0.0 | 0.00 | 0.00 | 0.00 | 84 | 1016.3 |
| 20260503033056 | 2 | 32 | 0.0 | 0.0 | 0.00 | 0.00 | 0.00 | 84 | 1016.3 |
| 20260503032955 | 2 | 32 | 0.0 | 0.0 | 0.00 | 0.00 | 0.00 | 85 | 1016.3 |
| 20260503032856 | 2 | 32 | 0.0 | 0.0 | 0.00 | 0.00 | 0.00 | 84 | 1016.3 |
| 20260503032757 | 2 | 32 | 0.0 | 0.0 | 0.00 | 0.00 | 0.00 | 84 | 1016.3 |
| 20260503032559 | 2 | 32 | 0.0 | 0.0 | 0.00 | 0.00 | 0.00 | 84 | 1016.2 |
| 20260503032456 | 2 | 32 | 0.0 | 0.0 | 0.00 | 0.00 | 0.00 | 84 | 1016.3 |
| 20260503032255 | 2 | 32 | 0.0 | 0.0 | 0.00 | 0.00 | 0.00 | 84 | 1016.3 |
| 20260503032156 | 2 | 32 | 0.0 | 0.0 | 0.00 | 0.00 | 0.00 | 84 | 1016.3 |
| 20260503031956 | 2 | 32 | 0.0 | 0.0 | 0.00 | 0.00 | 0.00 | 84 | 1016.3 |
| 20260503031756 | 2 | 32 | 0.0 | 0.0 | 0.00 | 0.00 | 0.00 | 84 | 1016.4 |
| 20260503031556 | 2 | 32 | 0.0 | 0.0 | 0.00 | 0.00 | 0.00 | 83 | 1016.3 |
| 20260503031356 | 2 | 32 | 0.0 | 0.0 | 0.00 | 0.00 | 0.00 | 83 | 1016.3 |
| 20260503031257 | 2 | 32 | 0.0 | 0.0 | 0.00 | 0.00 | 0.00 | 83 | 1016.4 |
| 20260503031156 | 2 | 32 | 0.0 | 0.0 | 0.00 | 0.00 | 0.00 | 83 | 1016.3 |
| 20260503031055 | 2 | 32 | 0.0 | 0.0 | 0.00 | 0.00 | 0.00 | 83 | 1016.4 |
| 20260503030955 | 2 | 32 | 0.0 | 0.0 | 0.00 | 0.00 | 0.00 | 83 | 1016.4 |
| 20260503030856 | 2 | 32 | 0.0 | 0.0 | 0.00 | 0.00 | 0.00 | 83 | 1016.3 |
| 20260503030756 | 2 | 32 | 0.0 | 0.0 | 0.00 | 0.00 | 0.00 | 83 | 1016.4 |
| 20260503030456 | 2 | 32 | 0.0 | 0.0 | 0.00 | 0.00 | 0.00 | 83 | 1016.3 |
| 20260503030355 | 2 | 32 | 0.0 | 0.0 | 0.00 | 0.00 | 0.00 | 82 | 1016.4 |
| 20260503030255 | 2 | 32 | 0.0 | 0.0 | 0.00 | 0.00 | 0.00 | 82 | 1016.4 |
| 20260503030156 | 2 | 32 | 0.0 | 0.0 | 0.00 | 0.00 | 0.00 | 83 | 1016.3 |
| 20260503025855 | 2 | 32 | 0.0 | 0.0 | 0.00 | 0.00 | 0.00 | 83 | 1016.5 |
| 20260503025755 | 3 | 32 | 0.0 | 0.0 | 0.00 | 0.00 | 0.00 | 83 | 1016.4 |
| 20260503025654 | 3 | 32 | 0.0 | 0.0 | 0.00 | 0.00 | 0.00 | 83 | 1016.4 |
| 20260503025454 | 3 | 32 | 0.0 | 0.0 | 0.00 | 0.00 | 0.00 | 83 | 1016.4 |
| 20260503025354 | 3 | 32 | 0.0 | 0.0 | 0.00 | 0.00 | 0.00 | 83 | 1016.3 |
| 20260503025255 | 3 | 32 | 0.0 | 0.0 | 0.00 | 0.00 | 0.00 | 83 | 1016.4 |
| 20260503025155 | 3 | 32 | 0.0 | 0.0 | 0.00 | 0.00 | 0.00 | 83 | 1016.4 |
| 20260503024955 | 3 | 32 | 0.0 | 0.0 | 0.00 | 0.00 | 0.00 | 83 | 1016.4 |
| 20260503024855 | 3 | 32 | 0.0 | 0.0 | 0.00 | 0.00 | 0.00 | 83 | 1016.4 |
| 20260503024756 | 3 | 32 | 0.0 | 0.0 | 0.00 | 0.00 | 0.00 | 83 | 1016.3 |
| 20260503024656 | 3 | 32 | 0.0 | 0.0 | 0.00 | 0.00 | 0.00 | 83 | 1016.4 |
| 20260503024555 | 3 | 32 | 0.0 | 0.0 | 0.00 | 0.00 | 0.00 | 82 | 1016.4 |
| 20260503024455 | 3 | 32 | 0.0 | 0.0 | 0.00 | 0.00 | 0.00 | 82 | 1016.4 |
| 20260503024355 | 3 | 32 | 0.0 | 0.0 | 0.00 | 0.00 | 0.00 | 82 | 1016.3 |
| 20260503024255 | 3 | 32 | 0.0 | 0.0 | 0.00 | 0.00 | 0.00 | 82 | 1016.4 |
| 20260503024157 | 3 | 32 | 0.0 | 0.0 | 0.00 | 0.00 | 0.00 | 82 | 1016.4 |
| 20260503023955 | 3 | 32 | 0.0 | 0.0 | 0.00 | 0.00 | 0.00 | 82 | 1016.4 |
| 20260503023855 | 3 | 32 | 0.0 | 0.0 | 0.00 | 0.00 | 0.00 | 82 | 1016.4 |
| 20260503023656 | 3 | 32 | 0.0 | 0.0 | 0.00 | 0.00 | 0.00 | 81 | 1016.4 |
| 20260503023556 | 3 | 32 | 0.0 | 0.0 | 0.00 | 0.00 | 0.00 | 81 | 1016.5 |
| 20260503023455 | 3 | 32 | 0.0 | 0.0 | 0.00 | 0.00 | 0.00 | 81 | 1016.4 |
| 20260503023355 | 3 | 32 | 0.0 | 0.0 | 0.00 | 0.00 | 0.00 | 81 | 1016.5 |
| 20260503023155 | 3 | 32 | 0.0 | 0.0 | 0.00 | 0.00 | 0.00 | 80 | 1016.5 |
| 20260503023055 | 3 | 32 | 0.0 | 0.0 | 0.00 | 0.00 | 0.00 | 80 | 1016.5 |
| 20260503022955 | 3 | 32 | 0.0 | 0.0 | 0.00 | 0.00 | 0.00 | 80 | 1016.5 |
| 20260503022855 | 3 | 32 | 0.0 | 0.0 | 0.00 | 0.00 | 0.00 | 80 | 1016.5 |
| 20260503022755 | 3 | 32 | 0.0 | 0.0 | 0.00 | 0.00 | 0.00 | 80 | 1016.5 |
| 20260503022655 | 3 | 32 | 0.0 | 0.0 | 0.00 | 0.00 | 0.00 | 80 | 1016.5 |
| 20260503022556 | 3 | 32 | 0.0 | 0.0 | 0.00 | 0.00 | 0.00 | 80 | 1016.5 |
| 20260503022454 | 3 | 32 | 0.0 | 0.0 | 0.00 | 0.00 | 0.00 | 80 | 1016.5 |
| 20260503022355 | 3 | 32 | 0.0 | 0.0 | 0.00 | 0.00 | 0.00 | 79 | 1016.5 |
| 20260503022255 | 3 | 32 | 0.0 | 0.0 | 0.00 | 0.00 | 0.00 | 80 | 1016.5 |
| 20260503022156 | 3 | 32 | 0.0 | 0.0 | 0.00 | 0.00 | 0.00 | 80 | 1016.5 |
| 20260503022054 | 3 | 32 | 0.0 | 0.0 | 0.00 | 0.00 | 0.00 | 81 | 1016.5 |
| 20260503021955 | 3 | 32 | 0.0 | 0.0 | 0.00 | 0.00 | 0.00 | 81 | 1016.5 |
| 20260503021855 | 3 | 32 | 0.0 | 0.0 | 0.00 | 0.00 | 0.00 | 81 | 1016.5 |
| 20260503021756 | 3 | 32 | 0.0 | 0.0 | 0.00 | 0.00 | 0.00 | 82 | 1016.5 |
| 20260503021654 | 3 | 32 | 0.0 | 0.0 | 0.00 | 0.00 | 0.00 | 81 | 1016.5 |
| 20260503021555 | 3 | 32 | 0.0 | 0.0 | 0.00 | 0.00 | 0.00 | 81 | 1016.5 |
| 20260503021454 | 3 | 32 | 0.0 | 0.0 | 0.00 | 0.00 | 0.00 | 81 | 1016.6 |
| 20260503021355 | 3 | 32 | 0.0 | 0.0 | 0.00 | 0.00 | 0.00 | 81 | 1016.5 |
| 20260503021256 | 3 | 32 | 0.0 | 0.0 | 0.00 | 0.00 | 0.00 | 81 | 1016.5 |
| 20260503021155 | 3 | 32 | 0.0 | 0.0 | 0.00 | 0.00 | 0.00 | 81 | 1016.5 |
| 20260503021055 | 3 | 32 | 0.0 | 0.0 | 0.00 | 0.00 | 0.00 | 81 | 1016.5 |
| 20260503020955 | 3 | 32 | 0.0 | 0.0 | 0.00 | 0.00 | 0.00 | 81 | 1016.5 |
| 20260503020656 | 3 | 32 | 0.0 | 0.0 | 0.00 | 0.00 | 0.00 | 81 | 1016.5 |
| 20260503020554 | 3 | 32 | 0.0 | 0.0 | 0.00 | 0.00 | 0.00 | 81 | 1016.4 |
| 20260503020455 | 3 | 32 | 0.0 | 0.0 | 0.00 | 0.00 | 0.00 | 81 | 1016.4 |
| 20260503020255 | 3 | 32 | 0.0 | 0.0 | 0.00 | 0.00 | 0.00 | 80 | 1016.4 |
| 20260503020155 | 3 | 32 | 0.0 | 0.0 | 0.00 | 0.00 | 0.00 | 80 | 1016.4 |
| 20260503020055 | 3 | 32 | 0.0 | 0.0 | 0.00 | 0.00 | 0.00 | 79 | 1016.4 |
| 20260503015958 | 3 | 32 | 0.0 | 0.0 | 0.00 | 0.00 | 0.00 | 79 | 1016.4 |
| 20260503015855 | 3 | 32 | 0.0 | 0.0 | 0.00 | 0.00 | 0.00 | 79 | 1016.4 |
| 20260503015656 | 3 | 32 | 0.0 | 0.0 | 0.00 | 0.00 | 0.00 | 80 | 1016.5 |
| 20260503015456 | 3 | 32 | 0.0 | 0.0 | 0.00 | 0.00 | 0.00 | 79 | 1016.4 |
| 20260503015355 | 3 | 32 | 0.0 | 0.0 | 0.00 | 0.00 | 0.00 | 79 | 1016.4 |
| 20260503015257 | 3 | 32 | 0.0 | 0.0 | 0.00 | 0.00 | 0.00 | 80 | 1016.4 |
| 20260503015155 | 3 | 32 | 0.0 | 0.0 | 0.00 | 0.00 | 0.00 | 80 | 1016.4 |
| 20260503014956 | 3 | 32 | 0.0 | 0.0 | 0.00 | 0.00 | 0.00 | 80 | 1016.5 |
| 20260503014856 | 3 | 32 | 0.0 | 0.0 | 0.00 | 0.00 | 0.00 | 80 | 1016.5 |
| 20260503014756 | 3 | 32 | 0.0 | 0.0 | 0.00 | 0.00 | 0.00 | 80 | 1016.5 |
| 20260503014655 | 3 | 32 | 0.0 | 0.0 | 0.00 | 0.00 | 0.00 | 79 | 1016.6 |
| 20260503014556 | 3 | 32 | 0.0 | 0.0 | 0.00 | 0.00 | 0.00 | 79 | 1016.5 |
| 20260503014456 | 3 | 32 | 0.0 | 0.0 | 0.00 | 0.00 | 0.00 | 79 | 1016.4 |
| 20260503014356 | 3 | 32 | 0.0 | 0.0 | 0.00 | 0.00 | 0.00 | 79 | 1016.5 |
| 20260503014256 | 3 | 32 | 0.0 | 0.0 | 0.00 | 0.00 | 0.00 | 79 | 1016.4 |
| 20260503014156 | 3 | 32 | 0.0 | 0.0 | 0.00 | 0.00 | 0.00 | 79 | 1016.4 |
| 20260503014056 | 3 | 32 | 0.0 | 0.0 | 0.00 | 0.00 | 0.00 | 78 | 1016.4 |
| 20260503013957 | 3 | 32 | 0.0 | 0.0 | 0.00 | 0.00 | 0.00 | 78 | 1016.4 |
| 20260503013756 | 3 | 32 | 0.0 | 0.0 | 0.00 | 0.00 | 0.00 | 78 | 1016.4 |
| 20260503013655 | 3 | 32 | 0.0 | 0.0 | 0.00 | 0.00 | 0.00 | 78 | 1016.4 |
| 20260503013555 | 4 | 32 | 0.0 | 0.0 | 0.00 | 0.00 | 0.00 | 78 | 1016.3 |
| 20260503013357 | 4 | 32 | 0.0 | 0.0 | 0.00 | 0.00 | 0.00 | 77 | 1016.3 |
| 20260503013156 | 4 | 32 | 0.0 | 0.0 | 0.00 | 0.00 | 0.00 | 77 | 1016.3 |
| 20260503012955 | 4 | 32 | 0.0 | 0.0 | 0.00 | 0.00 | 0.00 | 77 | 1016.3 |
| 20260503012856 | 4 | 32 | 0.0 | 0.0 | 0.00 | 0.00 | 0.00 | 77 | 1016.3 |
| 20260503012656 | 4 | 32 | 0.0 | 0.0 | 0.00 | 0.00 | 0.00 | 76 | 1016.4 |
| 20260503012556 | 4 | 32 | 0.0 | 0.0 | 0.00 | 0.00 | 0.00 | 76 | 1016.3 |
| 20260503012455 | 4 | 32 | 0.0 | 0.0 | 0.00 | 0.00 | 0.00 | 76 | 1016.3 |
| 20260503012357 | 4 | 32 | 0.0 | 0.0 | 0.00 | 0.00 | 0.00 | 76 | 1016.4 |
| 20260503012156 | 4 | 32 | 0.0 | 0.0 | 0.00 | 0.00 | 0.00 | 76 | 1016.4 |
| 20260503012057 | 4 | 32 | 0.0 | 0.0 | 0.00 | 0.00 | 0.00 | 77 | 1016.3 |
| 20260503011956 | 4 | 32 | 0.0 | 0.0 | 0.00 | 0.00 | 0.00 | 76 | 1016.4 |
| 20260503011856 | 4 | 32 | 0.0 | 1.6 | 0.00 | 0.00 | 0.00 | 77 | 1016.3 |
| 20260503011756 | 4 | 32 | 0.0 | 1.6 | 0.00 | 0.00 | 0.00 | 77 | 1016.3 |
| 20260503011656 | 4 | 32 | 0.0 | 1.6 | 0.00 | 0.00 | 0.00 | 76 | 1016.3 |
| 20260503011557 | 4 | 32 | 0.0 | 1.6 | 0.00 | 0.00 | 0.00 | 78 | 1016.3 |
| 20260503011456 | 4 | 32 | 0.0 | 1.6 | 0.00 | 0.00 | 0.00 | 78 | 1016.4 |
| 20260503011355 | 4 | 32 | 0.0 | 1.6 | 0.00 | 0.00 | 0.00 | 77 | 1016.3 |
| 20260503011256 | 4 | 32 | 0.0 | 1.6 | 0.00 | 0.00 | 0.00 | 77 | 1016.3 |
| 20260503011056 | 4 | 32 | 0.0 | 1.6 | 0.00 | 0.00 | 0.00 | 79 | 1016.3 |
| 20260503010956 | 4 | 32 | 0.0 | 0.0 | 0.00 | 0.00 | 0.00 | 79 | 1016.3 |
| 20260503010856 | 4 | 32 | 0.0 | 0.0 | 0.00 | 0.00 | 0.00 | 79 | 1016.4 |
| 20260503010655 | 4 | 32 | 0.0 | 0.0 | 0.00 | 0.00 | 0.00 | 79 | 1016.2 |
| 20260503010456 | 4 | 32 | 0.0 | 0.0 | 0.00 | 0.00 | 0.00 | 79 | 1016.2 |
| 20260503010357 | 4 | 32 | 0.0 | 0.0 | 0.00 | 0.00 | 0.00 | 79 | 1016.3 |
| 20260503010056 | 4 | 32 | 0.0 | 0.0 | 0.00 | 0.00 | 0.00 | 79 | 1016.3 |
| 20260503005958 | 4 | 32 | 0.0 | 0.0 | 0.00 | 0.00 | 0.00 | 79 | 1016.3 |
| 20260503005857 | 4 | 32 | 0.0 | 0.0 | 0.00 | 0.00 | 0.00 | 79 | 1016.2 |
| 20260503005757 | 4 | 32 | 0.0 | 0.0 | 0.00 | 0.00 | 0.00 | 79 | 1016.2 |
| 20260503005656 | 4 | 32 | 0.0 | 0.0 | 0.00 | 0.00 | 0.00 | 79 | 1016.2 |
| 20260503005555 | 4 | 32 | 0.0 | 0.0 | 0.00 | 0.00 | 0.00 | 79 | 1016.2 |
| 20260503005457 | 4 | 32 | 0.0 | 0.0 | 0.00 | 0.00 | 0.00 | 78 | 1016.3 |
| 20260503005257 | 4 | 32 | 0.0 | 0.0 | 0.00 | 0.00 | 0.00 | 78 | 1016.2 |
| 20260503005156 | 4 | 32 | 0.0 | 0.0 | 0.00 | 0.00 | 0.00 | 78 | 1016.2 |
| 20260503005055 | 4 | 32 | 0.0 | 0.0 | 0.00 | 0.00 | 0.00 | 78 | 1016.2 |
| 20260503004956 | 4 | 32 | 0.0 | 0.0 | 0.00 | 0.00 | 0.00 | 78 | 1016.1 |
| 20260503004855 | 4 | 32 | 0.0 | 0.0 | 0.00 | 0.00 | 0.00 | 78 | 1016.1 |
| 20260503004655 | 4 | 32 | 0.0 | 0.0 | 0.00 | 0.00 | 0.00 | 78 | 1016.0 |
| 20260503004557 | 4 | 32 | 0.0 | 0.0 | 0.00 | 0.00 | 0.00 | 78 | 1016.2 |
| 20260503004456 | 4 | 32 | 0.0 | 0.0 | 0.00 | 0.00 | 0.00 | 77 | 1016.1 |
| 20260503004356 | 4 | 32 | 0.0 | 0.0 | 0.00 | 0.00 | 0.00 | 77 | 1016.0 |
| 20260503004257 | 4 | 32 | 0.0 | 0.0 | 0.00 | 0.00 | 0.00 | 77 | 1016.0 |
| 20260503004155 | 4 | 32 | 0.0 | 0.0 | 0.00 | 0.00 | 0.00 | 77 | 1016.1 |
| 20260503004055 | 5 | 32 | 0.0 | 0.0 | 0.00 | 0.00 | 0.00 | 77 | 1016.0 |
| 20260503003956 | 5 | 32 | 0.0 | 0.0 | 0.00 | 0.00 | 0.00 | 76 | 1016.0 |
| 20260503003855 | 5 | 32 | 0.0 | 0.0 | 0.00 | 0.00 | 0.00 | 76 | 1016.1 |
| 20260503003757 | 5 | 32 | 0.0 | 0.0 | 0.00 | 0.00 | 0.00 | 76 | 1016.0 |
| 20260503003656 | 5 | 32 | 0.0 | 0.0 | 0.00 | 0.00 | 0.00 | 76 | 1015.9 |
| 20260503003555 | 5 | 32 | 0.0 | 0.0 | 0.00 | 0.00 | 0.00 | 76 | 1016.0 |
| 20260503003356 | 5 | 32 | 0.0 | 0.0 | 0.00 | 0.00 | 0.00 | 75 | 1015.9 |
| 20260503003256 | 5 | 32 | 0.0 | 0.0 | 0.00 | 0.00 | 0.00 | 75 | 1015.9 |
| 20260503003056 | 5 | 32 | 0.0 | 0.0 | 0.00 | 0.00 | 0.00 | 73 | 1016.0 |
| 20260503002955 | 5 | 32 | 0.0 | 0.0 | 0.00 | 0.00 | 0.00 | 73 | 1016.0 |
| 20260503002857 | 5 | 32 | 0.0 | 0.0 | 0.00 | 0.00 | 0.00 | 73 | 1015.9 |
| 20260503002756 | 5 | 32 | 0.0 | 0.0 | 0.00 | 0.00 | 0.00 | 73 | 1015.9 |
| 20260503002656 | 5 | 32 | 0.0 | 0.0 | 0.00 | 0.00 | 0.00 | 73 | 1015.9 |
| 20260503002555 | 5 | 32 | 0.0 | 0.0 | 0.00 | 0.00 | 0.00 | 73 | 1015.9 |
| 20260503002456 | 5 | 32 | 0.0 | 0.0 | 0.00 | 0.00 | 0.00 | 72 | 1015.9 |
| 20260503002357 | 5 | 32 | 0.0 | 0.0 | 0.00 | 0.00 | 0.00 | 72 | 1015.9 |
| 20260503002156 | 5 | 32 | 0.0 | 0.0 | 0.00 | 0.00 | 0.00 | 72 | 1016.0 |
| 20260503002056 | 5 | 32 | 0.0 | 0.0 | 0.00 | 0.00 | 0.00 | 72 | 1016.0 |
| 20260503001856 | 5 | 32 | 0.0 | 0.0 | 0.00 | 0.00 | 0.00 | 72 | 1015.9 |
| 20260503001757 | 5 | 32 | 0.0 | 0.0 | 0.00 | 0.00 | 0.00 | 72 | 1016.0 |
| 20260503001656 | 5 | 32 | 0.0 | 0.0 | 0.00 | 0.00 | 0.00 | 71 | 1016.0 |
| 20260503001556 | 5 | 32 | 0.0 | 0.0 | 0.00 | 0.00 | 0.00 | 71 | 1016.0 |
| 20260503001455 | 5 | 32 | 0.0 | 0.0 | 0.00 | 0.00 | 0.00 | 71 | 1016.0 |
| 20260503001255 | 5 | 32 | 0.0 | 1.6 | 0.00 | 0.00 | 0.00 | 71 | 1016.0 |
| 20260503001156 | 5 | 32 | 0.0 | 1.6 | 0.00 | 0.00 | 0.00 | 71 | 1016.0 |
| 20260503001056 | 5 | 32 | 0.0 | 1.6 | 0.00 | 0.00 | 0.00 | 70 | 1016.0 |
| 20260503000856 | 5 | 32 | 0.0 | 1.6 | 0.00 | 0.00 | 0.00 | 70 | 1016.0 |
| 20260503000755 | 5 | 32 | 0.0 | 1.6 | 0.00 | 0.00 | 0.00 | 70 | 1016.0 |
| 20260503000655 | 5 | 32 | 0.0 | 1.6 | 0.00 | 0.00 | 0.00 | 70 | 1016.0 |
| 20260503000555 | 5 | 32 | 0.0 | 1.6 | 0.00 | 0.00 | 0.00 | 70 | 1016.0 |
| 20260503000455 | 5 | 32 | 0.0 | 3.2 | 0.00 | 0.00 | 0.00 | 70 | 1016.0 |
| 20260503000355 | 5 | 32 | 1.6 | 3.2 | 0.00 | 0.00 | 0.00 | 69 | 1016.0 |
| 20260503000255 | 5 | 32 | 1.6 | 4.8 | 0.00 | 0.00 | 0.00 | 69 | 1016.0 |
| 20260503000157 | 5 | 32 | 0.0 | 4.8 | 0.00 | 0.00 | 0.00 | 70 | 1015.9 |
| 20260502235958 | 5 | 32 | 0.0 | 4.8 | 0.00 | 0.00 | 0.00 | 68 | 1015.8 |
| 20260502235856 | 5 | 32 | 0.0 | 4.8 | 0.00 | 0.05 | 0.00 | 68 | 1015.8 |
| 20260502235757 | 5 | 32 | 1.6 | 4.8 | 0.00 | 0.05 | 0.00 | 68 | 1015.8 |
| 20260502235656 | 5 | 32 | 0.0 | 4.8 | 0.00 | 0.05 | 0.00 | 68 | 1015.8 |
| 20260502235556 | 5 | 36 | 1.6 | 4.8 | 0.00 | 0.05 | 0.00 | 68 | 1015.7 |
| 20260502235456 | 5 | 36 | 1.6 | 4.8 | 0.00 | 0.05 | 0.00 | 68 | 1015.7 |
| 20260502235355 | 5 | 5 | 3.2 | 4.8 | 0.00 | 0.05 | 0.00 | 68 | 1015.7 |
| 20260502235256 | 5 | 35 | 1.6 | 3.2 | 0.00 | 0.05 | 0.00 | 69 | 1015.6 |
| 20260502235156 | 5 | 35 | 0.0 | 3.2 | 0.00 | 0.05 | 0.00 | 68 | 1015.7 |
| 20260502234957 | 5 | 35 | 0.0 | 4.8 | 0.00 | 0.05 | 0.00 | 68 | 1015.7 |
| 20260502234857 | 5 | 35 | 0.0 | 4.8 | 0.00 | 0.05 | 0.00 | 67 | 1015.8 |
| 20260502234756 | 5 | 35 | 1.6 | 4.8 | 0.00 | 0.05 | 0.00 | 67 | 1015.8 |
| 20260502234656 | 5 | 35 | 1.6 | 4.8 | 0.00 | 0.05 | 0.00 | 67 | 1015.6 |
| 20260502234556 | 5 | 34 | 3.2 | 4.8 | 0.00 | 0.05 | 0.00 | 67 | 1015.7 |
| 20260502234357 | 5 | 13 | 3.2 | 4.8 | 0.00 | 0.05 | 0.00 | 66 | 1015.7 |
| 20260502234256 | 5 | 21 | 3.2 | 4.8 | 0.00 | 0.05 | 0.00 | 66 | 1015.7 |
| 20260502234156 | 5 | 235 | 1.6 | 3.2 | 0.00 | 0.05 | 0.00 | 67 | 1015.7 |
| 20260502234055 | 5 | 221 | 0.0 | 3.2 | 0.00 | 0.05 | 0.00 | 68 | 1015.7 |
| 20260502233856 | 5 | 236 | 0.0 | 3.2 | 0.00 | 0.05 | 0.00 | 67 | 1015.6 |
| 20260502233759 | 5 | 236 | 1.6 | 3.2 | 0.00 | 0.05 | 0.00 | 66 | 1015.7 |
| 20260502233656 | 5 | 236 | 3.2 | 6.4 | 0.00 | 0.05 | 0.00 | 67 | 1015.6 |
| 20260502233556 | 5 | 128 | 0.0 | 6.4 | 0.00 | 0.05 | 0.00 | 68 | 1015.6 |
| 20260502233456 | 5 | 345 | 0.0 | 6.4 | 0.00 | 0.05 | 0.00 | 67 | 1015.7 |
| 20260502233356 | 5 | 345 | 0.0 | 6.4 | 0.00 | 0.05 | 0.00 | 68 | 1015.6 |
| 20260502233257 | 5 | 345 | 1.6 | 6.4 | 0.00 | 0.05 | 0.00 | 68 | 1015.7 |
| 20260502233156 | 5 | 345 | 0.0 | 6.4 | 0.00 | 0.05 | 0.00 | 68 | 1015.7 |
| 20260502233057 | 6 | 347 | 0.0 | 6.4 | 0.00 | 0.05 | 0.00 | 67 | 1015.7 |
| 20260502232856 | 6 | 347 | 1.6 | 6.4 | 0.00 | 0.05 | 0.00 | 68 | 1015.7 |
| 20260502232755 | 6 | 28 | 6.4 | 6.4 | 0.00 | 0.05 | 0.00 | 67 | 1015.7 |
| 20260502232656 | 6 | 61 | 0.0 | 4.8 | 0.00 | 0.05 | 0.00 | 67 | 1015.7 |
| 20260502232556 | 6 | 62 | 1.6 | 9.7 | 0.00 | 0.05 | 0.00 | 66 | 1015.6 |
| 20260502232456 | 6 | 75 | 0.0 | 9.7 | 0.00 | 0.05 | 0.00 | 67 | 1015.7 |
| 20260502232355 | 6 | 67 | 0.0 | 9.7 | 0.00 | 0.05 | 0.00 | 68 | 1015.6 |
| 20260502232257 | 6 | 67 | 0.0 | 9.7 | 0.00 | 0.05 | 0.00 | 68 | 1015.6 |
| 20260502232156 | 6 | 67 | 1.6 | 9.7 | 0.00 | 0.05 | 0.00 | 66 | 1015.7 |
| 20260502232056 | 6 | 5 | 0.0 | 9.7 | 0.00 | 0.05 | 0.00 | 67 | 1015.6 |
| 20260502231956 | 6 | 9 | 0.0 | 9.7 | 0.00 | 0.05 | 0.00 | 67 | 1015.6 |
| 20260502231855 | 6 | 32 | 3.2 | 9.7 | 0.00 | 0.05 | 0.00 | 66 | 1015.6 |
| 20260502231755 | 6 | 355 | 1.6 | 9.7 | 0.00 | 0.05 | 0.00 | 67 | 1015.6 |
| 20260502231656 | 6 | 239 | 3.2 | 8.0 | 0.00 | 0.05 | 0.00 | 69 | 1015.6 |
| 20260502231456 | 6 | 68 | 0.0 | 8.0 | 0.00 | 0.05 | 0.00 | 67 | 1015.5 |
| 20260502231356 | 6 | 68 | 1.6 | 8.0 | 0.00 | 0.05 | 0.00 | 67 | 1015.5 |
| 20260502231256 | 6 | 56 | 3.2 | 8.0 | 0.00 | 0.05 | 0.00 | 69 | 1015.6 |
| 20260502231156 | 6 | 325 | 3.2 | 8.0 | 0.00 | 0.05 | 0.00 | 68 | 1015.5 |
| 20260502230956 | 6 | 153 | 1.6 | 4.8 | 0.00 | 0.05 | 0.00 | 68 | 1015.5 |
| 20260502230656 | 6 | 348 | 1.6 | 4.8 | 0.00 | 0.05 | 0.00 | 67 | 1015.5 |
| 20260502230557 | 6 | 343 | 0.0 | 6.4 | 0.00 | 0.05 | 0.00 | 67 | 1015.5 |
| 20260502230456 | 6 | 337 | 1.6 | 6.4 | 0.00 | 0.05 | 0.00 | 68 | 1015.6 |
| 20260502230355 | 6 | 268 | 1.6 | 6.4 | 0.00 | 0.05 | 0.00 | 68 | 1015.6 |
| 20260502230256 | 6 | 269 | 1.6 | 6.4 | 0.00 | 0.05 | 0.00 | 67 | 1015.6 |
| 20260502230157 | 6 | 269 | 0.0 | 6.4 | 0.00 | 0.05 | 0.00 | 68 | 1015.5 |
| 20260502230057 | 6 | 277 | 0.0 | 6.4 | 0.00 | 0.05 | 0.00 | 67 | 1015.5 |
| 20260502225954 | 6 | 319 | 0.0 | 6.4 | 0.00 | 0.15 | 0.00 | 67 | 1015.6 |
| 20260502225856 | 6 | 259 | 1.6 | 6.4 | 0.00 | 0.15 | 0.00 | 66 | 1015.6 |
| 20260502225755 | 6 | 281 | 0.0 | 6.4 | 0.00 | 0.15 | 0.00 | 68 | 1015.6 |
| 20260502225654 | 6 | 232 | 1.6 | 4.8 | 0.00 | 0.15 | 0.00 | 68 | 1015.5 |
| 20260502225555 | 6 | 232 | 0.0 | 6.4 | 0.00 | 0.15 | 0.00 | 68 | 1015.6 |
| 20260502225455 | 6 | 253 | 1.6 | 6.4 | 0.00 | 0.15 | 0.00 | 69 | 1015.6 |
| 20260502225354 | 6 | 327 | 0.0 | 6.4 | 0.00 | 0.15 | 0.00 | 69 | 1015.6 |
| 20260502225255 | 6 | 327 | 0.0 | 6.4 | 0.00 | 0.15 | 0.00 | 70 | 1015.6 |
| 20260502225154 | 6 | 327 | 0.0 | 6.4 | 0.00 | 0.15 | 0.00 | 68 | 1015.6 |
| 20260502225055 | 6 | 327 | 3.2 | 6.4 | 0.00 | 0.15 | 0.00 | 69 | 1015.7 |
| 20260502224954 | 6 | 24 | 0.0 | 6.4 | 0.00 | 0.15 | 0.00 | 70 | 1015.8 |
| 20260502224854 | 6 | 24 | 3.2 | 6.4 | 0.00 | 0.15 | 0.00 | 70 | 1015.7 |
| 20260502224755 | 6 | 340 | 3.2 | 6.4 | 0.00 | 0.15 | 0.00 | 69 | 1015.7 |
| 20260502224654 | 6 | 237 | 0.0 | 4.8 | 0.00 | 0.15 | 0.00 | 70 | 1015.7 |
| 20260502224555 | 6 | 237 | 1.6 | 6.4 | 0.00 | 0.15 | 0.00 | 70 | 1015.7 |
| 20260502224455 | 6 | 9 | 1.6 | 6.4 | 0.00 | 0.15 | 0.00 | 70 | 1015.6 |
| 20260502224255 | 6 | 9 | 0.0 | 6.4 | 0.00 | 0.15 | 0.00 | 72 | 1015.6 |
| 20260502224155 | 6 | 35 | 0.0 | 6.4 | 0.00 | 0.15 | 0.00 | 71 | 1015.6 |
| 20260502224055 | 6 | 35 | 0.0 | 6.4 | 0.00 | 0.15 | 0.00 | 70 | 1015.6 |
| 20260502223955 | 6 | 35 | 1.6 | 6.4 | 0.00 | 0.15 | 0.00 | 71 | 1015.5 |
| 20260502223855 | 6 | 34 | 1.6 | 8.0 | 0.00 | 0.15 | 0.00 | 71 | 1015.5 |
| 20260502223355 | 6 | 327 | 3.2 | 8.0 | 0.00 | 0.15 | 0.00 | 70 | 1015.5 |
| 20260502223155 | 6 | 274 | 3.2 | 8.0 | 0.00 | 0.15 | 0.00 | 70 | 1015.5 |
| 20260502223055 | 6 | 277 | 0.0 | 8.0 | 0.00 | 0.15 | 0.00 | 70 | 1015.5 |
| 20260502222954 | 6 | 231 | 3.2 | 6.4 | 0.00 | 0.15 | 0.00 | 71 | 1015.4 |
| 20260502222855 | 6 | 340 | 1.6 | 6.4 | 0.00 | 0.15 | 0.00 | 72 | 1015.5 |
| 20260502222754 | 6 | 319 | 1.6 | 6.4 | 0.00 | 0.15 | 0.00 | 71 | 1015.4 |
| 20260502222655 | 6 | 32 | 0.0 | 6.4 | 0.00 | 0.15 | 0.00 | 71 | 1015.5 |
| 20260502222354 | 6 | 111 | 3.2 | 6.4 | 0.00 | 0.15 | 0.00 | 74 | 1015.5 |
| 20260502222155 | 6 | 265 | 3.2 | 3.2 | 0.00 | 0.15 | 0.00 | 72 | 1015.5 |
| 20260502222055 | 6 | 207 | 1.6 | 3.2 | 0.00 | 0.15 | 0.00 | 71 | 1015.4 |
| 20260502221954 | 6 | 207 | 0.0 | 3.2 | 0.00 | 0.15 | 0.00 | 72 | 1015.5 |
| 20260502221856 | 6 | 207 | 0.0 | 3.2 | 0.00 | 0.15 | 0.00 | 72 | 1015.4 |
| 20260502221754 | 6 | 207 | 0.0 | 3.2 | 0.00 | 0.15 | 0.00 | 72 | 1015.5 |
| 20260502221655 | 6 | 207 | 0.0 | 3.2 | 0.00 | 0.15 | 0.00 | 72 | 1015.4 |
| 20260502221455 | 6 | 187 | 1.6 | 3.2 | 0.00 | 0.15 | 0.00 | 71 | 1015.4 |
| 20260502221354 | 6 | 188 | 0.0 | 3.2 | 0.00 | 0.15 | 0.00 | 71 | 1015.5 |
| 20260502221254 | 6 | 319 | 0.0 | 3.2 | 0.00 | 0.15 | 0.00 | 71 | 1015.5 |
| 20260502220955 | 6 | 257 | 3.2 | 3.2 | 0.00 | 0.15 | 0.00 | 72 | 1015.4 |
| 20260502220755 | 6 | 350 | 0.0 | 6.4 | 0.00 | 0.15 | 0.00 | 72 | 1015.4 |
| 20260502220555 | 6 | 331 | 0.0 | 6.4 | 0.00 | 0.15 | 0.00 | 71 | 1015.4 |
| 20260502220455 | 6 | 331 | 1.6 | 6.4 | 0.00 | 0.15 | 0.00 | 71 | 1015.4 |
| 20260502220255 | 6 | 254 | 0.0 | 6.4 | 0.00 | 0.15 | 0.00 | 72 | 1015.4 |
| 20260502220155 | 6 | 327 | 0.0 | 6.4 | 0.00 | 0.15 | 0.00 | 72 | 1015.4 |
| 20260502220055 | 6 | 327 | 0.0 | 6.4 | 0.00 | 0.15 | 0.00 | 71 | 1015.4 |
| 20260502215955 | 6 | 327 | 3.2 | 6.4 | 0.00 | 0.15 | 0.00 | 71 | 1015.4 |
| 20260502215855 | 6 | 261 | 1.6 | 4.8 | 0.00 | 0.15 | 0.00 | 72 | 1015.4 |
| 20260502215755 | 6 | 5 | 3.2 | 4.8 | 0.00 | 0.15 | 0.00 | 70 | 1015.3 |
| 20260502215455 | 6 | 345 | 1.6 | 6.4 | 0.00 | 0.15 | 0.00 | 71 | 1015.3 |
| 20260502215354 | 6 | 345 | 1.6 | 6.4 | 0.00 | 0.15 | 0.00 | 71 | 1015.4 |
| 20260502215154 | 6 | 324 | 1.6 | 6.4 | 0.00 | 0.15 | 0.00 | 71 | 1015.2 |
| 20260502214955 | 6 | 333 | 1.6 | 6.4 | 0.00 | 0.15 | 0.00 | 71 | 1015.4 |
| 20260502214854 | 6 | 333 | 0.0 | 6.4 | 0.00 | 0.15 | 0.00 | 70 | 1015.3 |
| 20260502214755 | 6 | 47 | 3.2 | 6.4 | 0.00 | 0.15 | 0.00 | 71 | 1015.3 |
| 20260502214654 | 6 | 11 | 1.6 | 9.7 | 0.00 | 0.15 | 0.00 | 72 | 1015.2 |
| 20260502214555 | 6 | 11 | 1.6 | 9.7 | 0.00 | 0.15 | 0.00 | 71 | 1015.1 |
| 20260502214454 | 6 | 16 | 1.6 | 9.7 | 0.00 | 0.15 | 0.00 | 71 | 1015.3 |
| 20260502214355 | 6 | 16 | 3.2 | 9.7 | 0.00 | 0.15 | 0.00 | 70 | 1015.2 |
| 20260502214255 | 6 | 210 | 0.0 | 9.7 | 0.00 | 0.15 | 0.00 | 70 | 1015.2 |
| 20260502214055 | 6 | 317 | 1.6 | 9.7 | 0.00 | 0.15 | 0.00 | 70 | 1015.3 |
| 20260502213955 | 6 | 296 | 1.6 | 9.7 | 0.00 | 0.15 | 0.00 | 70 | 1015.3 |
| 20260502213854 | 6 | 5 | 1.6 | 9.7 | 0.00 | 0.15 | 0.00 | 71 | 1015.3 |
| 20260502213755 | 6 | 19 | 8.0 | 9.7 | 0.00 | 0.15 | 0.00 | 69 | 1015.3 |
| 20260502213554 | 6 | 243 | 3.2 | 6.4 | 0.00 | 0.15 | 0.00 | 70 | 1015.3 |
| 20260502213455 | 6 | 301 | 0.0 | 6.4 | 0.00 | 0.15 | 0.00 | 71 | 1015.3 |
| 20260502213355 | 6 | 288 | 1.6 | 6.4 | 0.00 | 0.15 | 0.00 | 70 | 1015.3 |
| 20260502213254 | 6 | 200 | 0.0 | 6.4 | 0.00 | 0.15 | 0.00 | 69 | 1015.4 |
| 20260502213154 | 6 | 250 | 1.6 | 6.4 | 0.00 | 0.15 | 0.00 | 70 | 1015.3 |
| 20260502213055 | 6 | 263 | 3.2 | 4.8 | 0.00 | 0.15 | 0.00 | 73 | 1015.2 |
| 20260502212955 | 6 | 255 | 0.0 | 4.8 | 0.00 | 0.15 | 0.00 | 71 | 1015.3 |
| 20260502212855 | 6 | 272 | 0.0 | 4.8 | 0.00 | 0.15 | 0.00 | 70 | 1015.3 |
| 20260502212755 | 6 | 272 | 0.0 | 9.7 | 0.00 | 0.15 | 0.00 | 71 | 1015.3 |
| 20260502212656 | 6 | 272 | 3.2 | 9.7 | 0.00 | 0.15 | 0.00 | 70 | 1015.3 |
| 20260502212555 | 6 | 273 | 3.2 | 9.7 | 0.00 | 0.15 | 0.00 | 69 | 1015.2 |
| 20260502212355 | 6 | 336 | 4.8 | 9.7 | 0.00 | 0.15 | 0.00 | 68 | 1015.2 |
| 20260502212255 | 6 | 340 | 1.6 | 9.7 | 0.00 | 0.15 | 0.00 | 69 | 1015.2 |
| 20260502212155 | 6 | 267 | 1.6 | 9.7 | 0.00 | 0.15 | 0.00 | 68 | 1015.2 |
| 20260502212055 | 6 | 229 | 1.6 | 9.7 | 0.00 | 0.15 | 0.00 | 71 | 1015.2 |
| 20260502211955 | 6 | 348 | 4.8 | 9.7 | 0.00 | 0.15 | 0.00 | 68 | 1015.2 |
| 20260502211855 | 7 | 350 | 8.0 | 9.7 | 0.00 | 0.15 | 0.00 | 70 | 1015.2 |
| 20260502211754 | 6 | 225 | 3.2 | 9.7 | 0.00 | 0.15 | 0.00 | 70 | 1015.1 |
| 20260502211655 | 6 | 211 | 0.0 | 9.7 | 0.00 | 0.15 | 0.00 | 70 | 1015.1 |
| 20260502211354 | 6 | 318 | 1.6 | 9.7 | 0.00 | 0.15 | 0.00 | 68 | 1015.2 |
| 20260502211255 | 6 | 275 | 1.6 | 9.7 | 0.00 | 0.15 | 0.00 | 68 | 1015.0 |
| 20260502211155 | 6 | 17 | 3.2 | 9.7 | 0.00 | 0.15 | 0.00 | 70 | 1015.0 |
| 20260502211055 | 6 | 235 | 3.2 | 9.7 | 0.00 | 0.15 | 0.00 | 68 | 1015.0 |
| 20260502210954 | 6 | 15 | 0.0 | 9.7 | 0.00 | 0.15 | 0.00 | 69 | 1015.1 |
| 20260502210855 | 6 | 26 | 3.2 | 9.7 | 0.00 | 0.15 | 0.00 | 69 | 1015.0 |
| 20260502210755 | 6 | 288 | 1.6 | 9.7 | 0.00 | 0.15 | 0.00 | 68 | 1015.0 |
| 20260502210656 | 6 | 239 | 1.6 | 9.7 | 0.00 | 0.15 | 0.00 | 68 | 1015.0 |
| 20260502210555 | 7 | 284 | 3.2 | 9.7 | 0.00 | 0.15 | 0.00 | 66 | 1015.1 |
| 20260502210454 | 7 | 53 | 1.6 | 9.7 | 0.00 | 0.15 | 0.00 | 67 | 1015.1 |
| 20260502210354 | 7 | 350 | 6.4 | 8.0 | 0.00 | 0.15 | 0.00 | 69 | 1014.9 |
| 20260502210256 | 7 | 30 | 1.6 | 6.4 | 0.00 | 0.15 | 0.00 | 70 | 1014.9 |
| 20260502210154 | 7 | 50 | 1.6 | 6.4 | 0.00 | 0.15 | 0.00 | 71 | 1015.1 |
| 20260502210055 | 7 | 56 | 0.0 | 6.4 | 0.00 | 0.15 | 0.00 | 70 | 1014.9 |
| 20260502205957 | 7 | 355 | 0.0 | 6.4 | 0.00 | 0.15 | 0.00 | 72 | 1014.9 |
| 20260502205857 | 6 | 355 | 1.6 | 9.7 | 0.00 | 0.23 | 0.00 | 73 | 1015.0 |
| 20260502205755 | 6 | 265 | 1.6 | 9.7 | 0.00 | 0.23 | 0.00 | 70 | 1015.1 |
| 20260502205455 | 6 | 253 | 1.6 | 9.7 | 0.00 | 0.23 | 0.00 | 69 | 1015.0 |
| 20260502205355 | 6 | 288 | 3.2 | 9.7 | 0.00 | 0.23 | 0.00 | 69 | 1015.0 |
| 20260502205256 | 6 | 349 | 3.2 | 14.5 | 0.00 | 0.23 | 0.00 | 70 | 1015.2 |
| 20260502205156 | 6 | 310 | 3.2 | 14.5 | 0.00 | 0.23 | 0.00 | 68 | 1015.1 |
| 20260502205056 | 6 | 343 | 3.2 | 14.5 | 0.00 | 0.23 | 0.00 | 67 | 1015.0 |
| 20260502204957 | 6 | 355 | 4.8 | 14.5 | 0.00 | 0.23 | 0.00 | 68 | 1015.0 |
| 20260502204856 | 6 | 69 | 1.6 | 14.5 | 0.00 | 0.23 | 0.00 | 68 | 1015.1 |
| 20260502204656 | 6 | 34 | 1.6 | 14.5 | 0.00 | 0.23 | 0.00 | 69 | 1015.0 |
| 20260502204555 | 6 | 265 | 3.2 | 14.5 | 0.00 | 0.23 | 0.00 | 69 | 1015.0 |
| 20260502204455 | 6 | 351 | 3.2 | 14.5 | 0.00 | 0.23 | 0.00 | 68 | 1015.0 |
| 20260502204355 | 6 | 327 | 1.6 | 12.9 | 0.00 | 0.23 | 0.00 | 68 | 1015.0 |
| 20260502204056 | 6 | 22 | 4.8 | 9.7 | 0.00 | 0.23 | 0.00 | 69 | 1015.1 |
| 20260502203955 | 6 | 348 | 3.2 | 9.7 | 0.00 | 0.23 | 0.00 | 69 | 1015.2 |
| 20260502203856 | 6 | 311 | 3.2 | 9.7 | 0.00 | 0.23 | 0.00 | 71 | 1015.2 |
| 20260502203657 | 6 | 276 | 1.6 | 9.7 | 0.00 | 0.23 | 0.00 | 69 | 1015.2 |
| 20260502203556 | 6 | 5 | 6.4 | 9.7 | 0.00 | 0.23 | 0.00 | 69 | 1015.1 |
| 20260502203456 | 6 | 328 | 3.2 | 9.7 | 0.00 | 0.23 | 0.00 | 70 | 1015.1 |
| 20260502203356 | 6 | 19 | 6.4 | 8.0 | 0.00 | 0.23 | 0.00 | 69 | 1015.1 |
| 20260502203256 | 6 | 50 | 1.6 | 8.0 | 0.00 | 0.23 | 0.00 | 69 | 1015.1 |
| 20260502203157 | 6 | 5 | 3.2 | 8.0 | 0.00 | 0.23 | 0.00 | 68 | 1015.1 |
| 20260502202955 | 6 | 132 | 3.2 | 8.0 | 0.00 | 0.23 | 0.00 | 69 | 1015.0 |
| 20260502202855 | 6 | 46 | 4.8 | 8.0 | 0.00 | 0.23 | 0.00 | 67 | 1015.0 |
| 20260502202756 | 7 | 263 | 4.8 | 8.0 | 0.00 | 0.23 | 0.00 | 66 | 1015.1 |
| 20260502202556 | 7 | 317 | 3.2 | 8.0 | 0.00 | 0.23 | 0.00 | 66 | 1015.1 |
| 20260502202356 | 7 | 330 | 1.6 | 8.0 | 0.00 | 0.23 | 0.00 | 66 | 1015.1 |
| 20260502202155 | 7 | 282 | 3.2 | 8.0 | 0.00 | 0.23 | 0.00 | 67 | 1015.1 |
| 20260502202056 | 7 | 267 | 3.2 | 8.0 | 0.00 | 0.23 | 0.00 | 69 | 1015.0 |
| 20260502201956 | 7 | 189 | 1.6 | 9.7 | 0.00 | 0.23 | 0.00 | 70 | 1015.0 |
| 20260502201756 | 7 | 346 | 3.2 | 16.1 | 0.00 | 0.23 | 0.00 | 70 | 1015.1 |
| 20260502201656 | 7 | 280 | 1.6 | 16.1 | 0.00 | 0.23 | 0.00 | 68 | 1015.1 |
| 20260502201456 | 7 | 257 | 1.6 | 16.1 | 0.00 | 0.23 | 0.00 | 67 | 1015.0 |
| 20260502201356 | 7 | 302 | 3.2 | 16.1 | 0.00 | 0.23 | 0.00 | 66 | 1015.1 |
| 20260502201256 | 7 | 321 | 4.8 | 16.1 | 0.00 | 0.23 | 0.00 | 68 | 1015.0 |
| 20260502201055 | 7 | 5 | 3.2 | 16.1 | 0.00 | 0.23 | 0.00 | 67 | 1014.9 |
| 20260502200956 | 7 | 341 | 8.0 | 16.1 | 0.00 | 0.23 | 0.00 | 68 | 1015.1 |
| 20260502200655 | 7 | 26 | 1.6 | 14.5 | 0.00 | 0.23 | 0.00 | 69 | 1015.0 |
| 20260502200556 | 7 | 30 | 4.8 | 14.5 | 0.00 | 0.23 | 0.00 | 69 | 1015.0 |
| 20260502200356 | 7 | 360 | 9.7 | 11.3 | 0.00 | 0.23 | 0.00 | 69 | 1015.0 |
| 20260502200255 | 7 | 19 | 3.2 | 8.0 | 0.00 | 0.23 | 0.00 | 71 | 1015.1 |
| 20260502200155 | 7 | 242 | 0.0 | 8.0 | 0.00 | 0.23 | 0.00 | 70 | 1015.0 |
| 20260502195855 | 7 | 237 | 3.2 | 8.0 | 0.00 | 0.25 | 0.00 | 70 | 1015.3 |
| 20260502195755 | 7 | 268 | 4.8 | 8.0 | 0.00 | 0.25 | 0.00 | 71 | 1015.2 |
| 20260502195655 | 7 | 258 | 3.2 | 8.0 | 0.00 | 0.25 | 0.00 | 71 | 1015.2 |
| 20260502195554 | 7 | 340 | 6.4 | 9.7 | 0.00 | 0.25 | 0.00 | 72 | 1015.2 |
| 20260502195455 | 7 | 277 | 0.0 | 9.7 | 0.00 | 0.25 | 0.00 | 70 | 1015.2 |
| 20260502195355 | 6 | 281 | 0.0 | 9.7 | 0.00 | 0.25 | 0.00 | 73 | 1015.2 |
| 20260502195255 | 6 | 272 | 4.8 | 9.7 | 0.00 | 0.25 | 0.00 | 74 | 1015.2 |
| 20260502195154 | 6 | 171 | 3.2 | 9.7 | 0.00 | 0.25 | 0.00 | 72 | 1015.1 |
| 20260502195055 | 6 | 50 | 1.6 | 9.7 | 0.00 | 0.25 | 0.00 | 73 | 1015.2 |
| 20260502194856 | 6 | 18 | 3.2 | 9.7 | 0.00 | 0.25 | 0.00 | 71 | 1015.2 |
| 20260502194755 | 6 | 19 | 4.8 | 9.7 | 0.00 | 0.25 | 0.00 | 72 | 1015.3 |
| 20260502194654 | 6 | 360 | 3.2 | 9.7 | 0.00 | 0.25 | 0.00 | 72 | 1015.2 |
| 20260502194555 | 6 | 24 | 0.0 | 9.7 | 0.00 | 0.25 | 0.00 | 75 | 1015.2 |
| 20260502194455 | 6 | 5 | 1.6 | 9.7 | 0.00 | 0.25 | 0.00 | 72 | 1015.2 |
| 20260502194355 | 6 | 19 | 4.8 | 8.0 | 0.00 | 0.25 | 0.00 | 73 | 1015.2 |
| 20260502194256 | 6 | 35 | 6.4 | 8.0 | 0.00 | 0.25 | 0.00 | 74 | 1015.2 |
| 20260502194155 | 6 | 19 | 1.6 | 8.0 | 0.00 | 0.25 | 0.00 | 73 | 1015.3 |
| 20260502194054 | 6 | 323 | 1.6 | 8.0 | 0.00 | 0.25 | 0.00 | 72 | 1015.2 |
| 20260502193954 | 6 | 346 | 1.6 | 8.0 | 0.00 | 0.25 | 0.00 | 75 | 1015.3 |
| 20260502193854 | 6 | 279 | 0.0 | 8.0 | 0.00 | 0.25 | 0.00 | 75 | 1015.3 |
| 20260502193754 | 6 | 279 | 0.0 | 8.0 | 0.00 | 0.25 | 0.00 | 74 | 1015.3 |
| 20260502193654 | 6 | 67 | 3.2 | 8.0 | 0.00 | 0.25 | 0.00 | 74 | 1015.4 |
| 20260502193554 | 6 | 18 | 1.6 | 8.0 | 0.00 | 0.25 | 0.00 | 73 | 1015.3 |
| 20260502193455 | 6 | 49 | 4.8 | 4.8 | 0.00 | 0.25 | 0.00 | 74 | 1015.3 |
| 20260502193255 | 6 | 336 | 1.6 | 6.4 | 0.00 | 0.25 | 0.00 | 75 | 1015.4 |
| 20260502193155 | 6 | 252 | 0.0 | 6.4 | 0.00 | 0.25 | 0.00 | 74 | 1015.4 |
| 20260502193054 | 6 | 252 | 1.6 | 6.4 | 0.00 | 0.25 | 0.00 | 74 | 1015.5 |
| 20260502192855 | 6 | 5 | 1.6 | 8.0 | 0.00 | 0.25 | 0.00 | 73 | 1015.4 |
| 20260502192754 | 6 | 260 | 1.6 | 8.0 | 0.00 | 0.25 | 0.00 | 74 | 1015.4 |
| 20260502192654 | 6 | 286 | 0.0 | 8.0 | 0.00 | 0.25 | 0.00 | 74 | 1015.5 |
| 20260502192555 | 6 | 238 | 1.6 | 8.0 | 0.00 | 0.25 | 0.00 | 74 | 1015.4 |
| 20260502192454 | 6 | 324 | 3.2 | 9.7 | 0.00 | 0.25 | 0.00 | 74 | 1015.4 |
| 20260502192356 | 6 | 5 | 3.2 | 9.7 | 0.00 | 0.25 | 0.00 | 74 | 1015.5 |
| 20260502192255 | 6 | 355 | 3.2 | 9.7 | 0.00 | 0.25 | 0.00 | 74 | 1015.5 |
| 20260502192155 | 6 | 290 | 1.6 | 9.7 | 0.00 | 0.25 | 0.00 | 73 | 1015.4 |
| 20260502192056 | 6 | 193 | 1.6 | 9.7 | 0.00 | 0.25 | 0.00 | 73 | 1015.5 |
| 20260502191955 | 6 | 314 | 3.2 | 9.7 | 0.00 | 0.25 | 0.00 | 74 | 1015.5 |
| 20260502191854 | 6 | 300 | 1.6 | 9.7 | 0.00 | 0.25 | 0.00 | 74 | 1015.5 |
| 20260502191756 | 6 | 300 | 1.6 | 9.7 | 0.00 | 0.25 | 0.00 | 73 | 1015.5 |
| 20260502191654 | 6 | 268 | 4.8 | 9.7 | 0.00 | 0.25 | 0.00 | 73 | 1015.5 |
| 20260502191555 | 6 | 301 | 1.6 | 4.8 | 0.00 | 0.25 | 0.00 | 73 | 1015.5 |
| 20260502191455 | 6 | 239 | 1.6 | 4.8 | 0.00 | 0.25 | 0.00 | 73 | 1015.5 |
| 20260502191354 | 6 | 236 | 3.2 | 4.8 | 0.00 | 0.25 | 0.00 | 72 | 1015.4 |
| 20260502191254 | 6 | 238 | 3.2 | 4.8 | 0.00 | 0.25 | 0.00 | 72 | 1015.5 |
| 20260502191154 | 6 | 5 | 0.0 | 4.8 | 0.00 | 0.25 | 0.00 | 72 | 1015.5 |
| 20260502190954 | 6 | 296 | 0.0 | 4.8 | 0.00 | 0.25 | 0.00 | 73 | 1015.5 |
| 20260502190855 | 6 | 300 | 1.6 | 9.7 | 0.00 | 0.25 | 0.00 | 72 | 1015.5 |
| 20260502190754 | 6 | 307 | 0.0 | 9.7 | 0.00 | 0.25 | 0.00 | 71 | 1015.6 |
| 20260502190654 | 6 | 306 | 1.6 | 9.7 | 0.00 | 0.25 | 0.00 | 71 | 1015.5 |
| 20260502190555 | 6 | 251 | 1.6 | 9.7 | 0.00 | 0.25 | 0.00 | 72 | 1015.5 |
| 20260502190454 | 6 | 215 | 1.6 | 9.7 | 0.00 | 0.25 | 0.00 | 74 | 1015.6 |
| 20260502190354 | 6 | 300 | 3.2 | 9.7 | 0.00 | 0.25 | 0.00 | 72 | 1015.5 |
| 20260502190255 | 6 | 5 | 0.0 | 9.7 | 0.00 | 0.25 | 0.00 | 71 | 1015.5 |
| 20260502190154 | 6 | 28 | 3.2 | 9.7 | 0.00 | 0.25 | 0.00 | 72 | 1015.5 |
| 20260502190056 | 6 | 17 | 6.4 | 9.7 | 0.00 | 0.25 | 0.00 | 71 | 1015.5 |
| 20260502185956 | 6 | 5 | 8.0 | 9.7 | 0.00 | 0.25 | 0.00 | 73 | 1015.5 |
| 20260502185754 | 6 | 50 | 9.7 | 14.5 | 0.00 | 0.25 | 0.00 | 71 | 1015.6 |
| 20260502185655 | 6 | 246 | 1.6 | 14.5 | 0.00 | 0.25 | 0.00 | 71 | 1015.5 |
| 20260502185555 | 6 | 284 | 1.6 | 14.5 | 0.00 | 0.25 | 0.00 | 70 | 1015.6 |
| 20260502185455 | 6 | 328 | 3.2 | 14.5 | 0.00 | 0.25 | 0.00 | 72 | 1015.6 |
| 20260502185355 | 6 | 17 | 8.0 | 14.5 | 0.00 | 0.25 | 0.00 | 71 | 1015.5 |
| 20260502185155 | 6 | 335 | 1.6 | 14.5 | 0.00 | 0.25 | 0.00 | 73 | 1015.6 |
| 20260502185054 | 6 | 317 | 1.6 | 14.5 | 0.00 | 0.25 | 0.00 | 71 | 1015.5 |
| 20260502184954 | 6 | 277 | 1.6 | 14.5 | 0.00 | 0.25 | 0.00 | 70 | 1015.6 |
| 20260502184855 | 6 | 10 | 6.4 | 6.4 | 0.00 | 0.25 | 0.00 | 72 | 1015.5 |
| 20260502184755 | 6 | 330 | 1.6 | 6.4 | 0.00 | 0.25 | 0.00 | 71 | 1015.6 |
| 20260502184655 | 6 | 246 | 1.6 | 6.4 | 0.00 | 0.25 | 0.00 | 70 | 1015.5 |
| 20260502184455 | 6 | 323 | 1.6 | 6.4 | 0.00 | 0.25 | 0.00 | 70 | 1015.6 |
| 20260502184355 | 6 | 332 | 3.2 | 6.4 | 0.00 | 0.25 | 0.00 | 70 | 1015.5 |
| 20260502184254 | 7 | 5 | 1.6 | 6.4 | 0.00 | 0.25 | 0.00 | 70 | 1015.6 |
| 20260502184056 | 7 | 335 | 1.6 | 14.5 | 0.00 | 0.25 | 0.00 | 69 | 1015.5 |
| 20260502183955 | 7 | 275 | 0.0 | 14.5 | 0.00 | 0.25 | 0.00 | 69 | 1015.4 |
| 20260502183856 | 7 | 258 | 3.2 | 14.5 | 0.00 | 0.25 | 0.00 | 68 | 1015.5 |
| 20260502183755 | 7 | 217 | 3.2 | 14.5 | 0.00 | 0.25 | 0.00 | 69 | 1015.5 |
| 20260502183654 | 7 | 269 | 3.2 | 14.5 | 0.00 | 0.25 | 0.00 | 69 | 1015.5 |
| 20260502183454 | 7 | 246 | 3.2 | 14.5 | 0.00 | 0.25 | 0.00 | 71 | 1015.5 |
| 20260502183354 | 7 | 360 | 8.0 | 14.5 | 0.00 | 0.25 | 0.00 | 70 | 1015.5 |
| 20260502183255 | 7 | 40 | 6.4 | 6.4 | 0.00 | 0.25 | 0.00 | 72 | 1015.5 |
| 20260502183154 | 7 | 63 | 3.2 | 8.0 | 0.00 | 0.25 | 0.00 | 73 | 1015.5 |
| 20260502182954 | 7 | 227 | 1.6 | 16.1 | 0.00 | 0.25 | 0.00 | 71 | 1015.5 |
| 20260502182855 | 7 | 24 | 1.6 | 16.1 | 0.00 | 0.25 | 0.00 | 70 | 1015.5 |
| 20260502182755 | 7 | 277 | 1.6 | 16.1 | 0.00 | 0.25 | 0.00 | 70 | 1015.5 |
| 20260502182654 | 7 | 329 | 1.6 | 16.1 | 0.00 | 0.25 | 0.00 | 71 | 1015.5 |
| 20260502182554 | 7 | 285 | 3.2 | 16.1 | 0.00 | 0.25 | 0.00 | 70 | 1015.5 |
| 20260502182455 | 7 | 327 | 4.8 | 16.1 | 0.00 | 0.25 | 0.00 | 72 | 1015.5 |
| 20260502182355 | 7 | 15 | 1.6 | 16.1 | 0.00 | 0.25 | 0.00 | 71 | 1015.4 |
| 20260502182255 | 7 | 24 | 9.7 | 16.1 | 0.00 | 0.25 | 0.00 | 70 | 1015.4 |
| 20260502182154 | 7 | 38 | 6.4 | 8.0 | 0.00 | 0.25 | 0.00 | 73 | 1015.4 |
| 20260502182055 | 7 | 148 | 0.0 | 6.4 | 0.00 | 0.25 | 0.00 | 74 | 1015.5 |
| 20260502181954 | 7 | 142 | 1.6 | 6.4 | 0.00 | 0.25 | 0.00 | 76 | 1015.4 |
| 20260502181854 | 7 | 220 | 1.6 | 6.4 | 0.00 | 0.25 | 0.00 | 76 | 1015.5 |
| 20260502181656 | 7 | 238 | 3.2 | 6.4 | 0.00 | 0.25 | 0.00 | 70 | 1015.5 |
| 20260502181555 | 7 | 250 | 1.6 | 12.9 | 0.00 | 0.25 | 0.00 | 73 | 1015.5 |
| 20260502181455 | 7 | 267 | 3.2 | 12.9 | 0.00 | 0.25 | 0.00 | 76 | 1015.5 |
| 20260502181354 | 7 | 329 | 0.0 | 12.9 | 0.00 | 0.25 | 0.00 | 73 | 1015.5 |
| 20260502181254 | 7 | 345 | 3.2 | 12.9 | 0.00 | 0.25 | 0.00 | 71 | 1015.5 |
| 20260502181155 | 7 | 71 | 1.6 | 12.9 | 0.00 | 0.25 | 0.00 | 71 | 1015.6 |
| 20260502181054 | 7 | 213 | 1.6 | 12.9 | 0.00 | 0.25 | 0.00 | 73 | 1015.6 |
| 20260502180955 | 7 | 9 | 3.2 | 12.9 | 0.00 | 0.25 | 0.00 | 72 | 1015.6 |
| 20260502180855 | 7 | 37 | 4.8 | 12.9 | 0.00 | 0.25 | 0.00 | 71 | 1015.6 |
| 20260502180654 | 7 | 311 | 3.2 | 6.4 | 0.00 | 0.25 | 0.00 | 73 | 1015.6 |
| 20260502180554 | 7 | 350 | 1.6 | 6.4 | 0.00 | 0.25 | 0.00 | 73 | 1015.6 |
| 20260502180455 | 7 | 5 | 0.0 | 8.0 | 0.00 | 0.25 | 0.00 | 75 | 1015.6 |
| 20260502180355 | 7 | 5 | 1.6 | 8.0 | 0.00 | 0.25 | 0.00 | 72 | 1015.6 |
| 20260502180154 | 7 | 257 | 3.2 | 9.7 | 0.00 | 0.25 | 0.00 | 74 | 1015.5 |